owner,sensor,date,latitude,longitude,vertical_datum,wind_speed,wind_to_direction,wind_speed_of_gust,qcFlag 
ADCP,ioos:station:wmo:42390:1,2013-10-01T00:30:00Z,26.1290,-94.8980,1.0,0.0,0.0,99.0,'11111222,11111222,11144222' 
ADCP,ioos:station:wmo:42390:1,2013-10-01T01:30:00Z,26.1290,-94.8980,1.0,1.6,125.0,99.0,'11111222,11111222,11144222' 
ADCP,ioos:station:wmo:42390:1,2013-10-01T02:30:00Z,26.1290,-94.8980,1.0,2.4,133.0,99.0,'11111222,11111222,11144222' 
ADCP,ioos:station:wmo:42390:1,2013-10-01T03:30:00Z,26.1290,-94.8980,1.0,2.9,139.0,99.0,'11111222,11111222,11144222' 
ADCP,ioos:station:wmo:42390:1,2013-10-01T04:30:00Z,26.1290,-94.8980,1.0,3.6,140.0,99.0,'11111222,11111222,11144222' 
ADCP,ioos:station:wmo:42390:1,2013-10-01T05:30:00Z,26.1290,-94.8980,1.0,3.5,151.0,99.0,'11111222,11111222,11144222' 
ADCP,ioos:station:wmo:42390:1,2013-10-01T06:30:00Z,26.1290,-94.8980,1.0,3.9,147.0,99.0,'11111222,11111222,11144222' 
ADCP,ioos:station:wmo:42390:1,2013-10-01T07:30:00Z,26.1290,-94.8980,1.0,5.5,142.0,99.0,'11111222,11111222,11144222' 
ADCP,ioos:station:wmo:42390:1,2013-10-01T08:30:00Z,26.1290,-94.8980,1.0,6.4,147.0,99.0,'11111222,11111222,11144222' 
ADCP,ioos:station:wmo:42390:1,2013-10-01T09:30:00Z,26.1290,-94.8980,1.0,8.6,161.0,99.0,'11111222,11111222,11144222' 
ADCP,ioos:station:wmo:42390:1,2013-10-01T10:30:00Z,26.1290,-94.8980,1.0,8.7,158.0,99.0,'11111222,11111222,11144222' 
ADCP,ioos:station:wmo:42390:1,2013-10-01T11:30:00Z,26.1290,-94.8980,1.0,9.3,160.0,99.0,'11111222,11111222,11144222' 
ADCP,ioos:station:wmo:42390:1,2013-10-01T12:30:00Z,26.1290,-94.8980,1.0,7.5,157.0,99.0,'11111222,11111222,11144222' 
ADCP,ioos:station:wmo:42390:1,2013-10-01T13:30:00Z,26.1290,-94.8980,1.0,7.2,152.0,99.0,'11111222,11111222,11144222' 
ADCP,ioos:station:wmo:42390:1,2013-10-01T14:30:00Z,26.1290,-94.8980,1.0,8.5,168.0,99.0,'11111222,11111222,11144222' 
ADCP,ioos:station:wmo:42390:1,2013-10-01T15:30:00Z,26.1290,-94.8980,1.0,7.0,173.0,99.0,'11111222,11111222,11144222' 
ADCP,ioos:station:wmo:42390:1,2013-10-01T16:30:00Z,26.1290,-94.8980,1.0,6.8,174.0,99.0,'11111222,11111222,11144222' 
ADCP,ioos:station:wmo:42390:1,2013-10-01T17:30:00Z,26.1290,-94.8980,1.0,5.9,195.0,99.0,'11111222,11111222,11144222' 
ADCP,ioos:station:wmo:42390:1,2013-10-01T18:30:00Z,26.1290,-94.8980,1.0,4.1,203.0,99.0,'11111222,11111222,11144222' 
ADCP,ioos:station:wmo:42390:1,2013-10-01T19:30:00Z,26.1290,-94.8980,1.0,3.3,183.0,99.0,'11111222,11111222,11144222' 
ADCP,ioos:station:wmo:42390:1,2013-10-01T20:30:00Z,26.1290,-94.8980,1.0,5.6,219.0,99.0,'11111222,11111222,11144222' 
ADCP,ioos:station:wmo:42390:1,2013-10-01T21:30:00Z,26.1290,-94.8980,1.0,0.4,310.0,99.0,'11111222,11111222,11144222' 
ADCP,ioos:station:wmo:42390:1,2013-10-01T23:30:00Z,26.1290,-94.8980,1.0,3.7,94.0,99.0,'11111222,11111222,11144222' 
ADCP,ioos:station:wmo:42390:1,2013-10-02T00:30:00Z,26.1290,-94.8980,1.0,4.6,100.0,99.0,'11111222,11111222,11144222' 
ADCP,ioos:station:wmo:42390:1,2013-10-02T01:30:00Z,26.1290,-94.8980,1.0,6.0,102.0,99.0,'11111222,11111222,11144222' 
ADCP,ioos:station:wmo:42390:1,2013-10-02T02:30:00Z,26.1290,-94.8980,1.0,6.3,111.0,99.0,'11111222,11111222,11144222' 
ADCP,ioos:station:wmo:42390:1,2013-10-02T03:30:00Z,26.1290,-94.8980,1.0,6.5,127.0,99.0,'11111222,11111222,11144222' 
ADCP,ioos:station:wmo:42390:1,2013-10-02T04:30:00Z,26.1290,-94.8980,1.0,7.8,131.0,99.0,'11111222,11111222,11144222' 
ADCP,ioos:station:wmo:42390:1,2013-10-02T05:30:00Z,26.1290,-94.8980,1.0,7.7,139.0,99.0,'11111222,11111222,11144222' 
ADCP,ioos:station:wmo:42390:1,2013-10-02T06:30:00Z,26.1290,-94.8980,1.0,7.6,140.0,99.0,'11111222,11111222,11144222' 
ADCP,ioos:station:wmo:42390:1,2013-10-02T07:30:00Z,26.1290,-94.8980,1.0,7.1,137.0,99.0,'11111222,11111222,11144222' 
ADCP,ioos:station:wmo:42390:1,2013-10-02T08:30:00Z,26.1290,-94.8980,1.0,7.1,165.0,99.0,'11111222,11111222,11144222' 
ADCP,ioos:station:wmo:42390:1,2013-10-02T09:30:00Z,26.1290,-94.8980,1.0,6.2,163.0,99.0,'11111222,11111222,11144222' 
ADCP,ioos:station:wmo:42390:1,2013-10-02T10:30:00Z,26.1290,-94.8980,1.0,6.3,153.0,99.0,'11111222,11111222,11144222' 
ADCP,ioos:station:wmo:42390:1,2013-10-02T11:30:00Z,26.1290,-94.8980,1.0,6.2,174.0,99.0,'11111222,11111222,11144222' 
ADCP,ioos:station:wmo:42390:1,2013-10-02T12:30:00Z,26.1290,-94.8980,1.0,5.4,179.0,99.0,'11111222,11111222,11144222' 
ADCP,ioos:station:wmo:42390:1,2013-10-02T13:30:00Z,26.1290,-94.8980,1.0,5.8,168.0,99.0,'11111222,11111222,11144222' 
ADCP,ioos:station:wmo:42390:1,2013-10-02T14:30:00Z,26.1290,-94.8980,1.0,4.9,168.0,99.0,'11111222,11111222,11144222' 
ADCP,ioos:station:wmo:42390:1,2013-10-02T15:30:00Z,26.1290,-94.8980,1.0,5.1,162.0,99.0,'11111222,11111222,11144222' 
ADCP,ioos:station:wmo:42390:1,2013-10-02T16:30:00Z,26.1290,-94.8980,1.0,3.8,166.0,99.0,'11111222,11111222,11144222' 
ADCP,ioos:station:wmo:42390:1,2013-10-02T17:30:00Z,26.1290,-94.8980,1.0,3.2,155.0,99.0,'11111222,11111222,11144222' 
ADCP,ioos:station:wmo:42390:1,2013-10-02T18:30:00Z,26.1290,-94.8980,1.0,3.4,138.0,99.0,'11111222,11111222,11144222' 
ADCP,ioos:station:wmo:42390:1,2013-10-02T19:30:00Z,26.1290,-94.8980,1.0,3.3,147.0,99.0,'11111222,11111222,11144222' 
ADCP,ioos:station:wmo:42390:1,2013-10-02T20:30:00Z,26.1290,-94.8980,1.0,3.3,144.0,99.0,'11111222,11111222,11144222' 
ADCP,ioos:station:wmo:42390:1,2013-10-02T21:30:00Z,26.1290,-94.8980,1.0,3.3,143.0,99.0,'11111222,11111222,11144222' 
ADCP,ioos:station:wmo:42390:1,2013-10-02T22:30:00Z,26.1290,-94.8980,1.0,3.3,137.0,99.0,'11111222,11111222,11144222' 
ADCP,ioos:station:wmo:42390:1,2013-10-02T23:30:00Z,26.1290,-94.8980,1.0,3.2,130.0,99.0,'11111222,11111222,11144222' 
ADCP,ioos:station:wmo:42390:1,2013-10-03T00:30:00Z,26.1290,-94.8980,1.0,3.7,130.0,99.0,'11111222,11111222,11144222' 
ADCP,ioos:station:wmo:42390:1,2013-10-03T01:30:00Z,26.1290,-94.8980,1.0,4.4,125.0,99.0,'11111222,11111222,11144222' 
ADCP,ioos:station:wmo:42390:1,2013-10-03T02:30:00Z,26.1290,-94.8980,1.0,5.0,126.0,99.0,'11111222,11111222,11144222' 
ADCP,ioos:station:wmo:42390:1,2013-10-03T03:30:00Z,26.1290,-94.8980,1.0,5.1,119.0,99.0,'11111222,11111222,11144222' 
ADCP,ioos:station:wmo:42390:1,2013-10-03T04:30:00Z,26.1290,-94.8980,1.0,5.1,121.0,99.0,'11111222,11111222,11144222' 
ADCP,ioos:station:wmo:42390:1,2013-10-03T05:30:00Z,26.1290,-94.8980,1.0,5.5,129.0,99.0,'11111222,11111222,11144222' 
ADCP,ioos:station:wmo:42390:1,2013-10-03T06:30:00Z,26.1290,-94.8980,1.0,5.4,133.0,99.0,'11111222,11111222,11144222' 
ADCP,ioos:station:wmo:42390:1,2013-10-03T07:30:00Z,26.1290,-94.8980,1.0,5.4,139.0,99.0,'11111222,11111222,11144222' 
ADCP,ioos:station:wmo:42390:1,2013-10-03T08:30:00Z,26.1290,-94.8980,1.0,4.9,142.0,99.0,'11111222,11111222,11144222' 
ADCP,ioos:station:wmo:42390:1,2013-10-03T09:30:00Z,26.1290,-94.8980,1.0,4.0,144.0,99.0,'11111222,11111222,11144222' 
ADCP,ioos:station:wmo:42390:1,2013-10-03T10:30:00Z,26.1290,-94.8980,1.0,3.4,151.0,99.0,'11111222,11111222,11144222' 
ADCP,ioos:station:wmo:42390:1,2013-10-03T11:30:00Z,26.1290,-94.8980,1.0,3.4,149.0,99.0,'11111222,11111222,11144222' 
ADCP,ioos:station:wmo:42390:1,2013-10-03T12:30:00Z,26.1290,-94.8980,1.0,3.6,150.0,99.0,'11111222,11111222,11144222' 
ADCP,ioos:station:wmo:42390:1,2013-10-03T13:30:00Z,26.1290,-94.8980,1.0,3.6,148.0,99.0,'11111222,11111222,11144222' 
ADCP,ioos:station:wmo:42390:1,2013-10-03T14:30:00Z,26.1290,-94.8980,1.0,3.6,145.0,99.0,'11111222,11111222,11144222' 
ADCP,ioos:station:wmo:42390:1,2013-10-03T15:30:00Z,26.1290,-94.8980,1.0,3.2,129.0,99.0,'11111222,11111222,11144222' 
ADCP,ioos:station:wmo:42390:1,2013-10-03T16:30:00Z,26.1290,-94.8980,1.0,3.7,127.0,99.0,'11111222,11111222,11144222' 
ADCP,ioos:station:wmo:42390:1,2013-10-03T17:30:00Z,26.1290,-94.8980,1.0,3.7,128.0,99.0,'11111222,11111222,11144222' 
ADCP,ioos:station:wmo:42390:1,2013-10-03T18:30:00Z,26.1290,-94.8980,1.0,3.1,126.0,99.0,'11111222,11111222,11144222' 
ADCP,ioos:station:wmo:42390:1,2013-10-03T19:30:00Z,26.1290,-94.8980,1.0,3.4,121.0,99.0,'11111222,11111222,11144222' 
ADCP,ioos:station:wmo:42390:1,2013-10-03T20:30:00Z,26.1290,-94.8980,1.0,4.5,122.0,99.0,'11111222,11111222,11144222' 
ADCP,ioos:station:wmo:42390:1,2013-10-03T21:30:00Z,26.1290,-94.8980,1.0,4.2,115.0,99.0,'11111222,11111222,11144222' 
ADCP,ioos:station:wmo:42390:1,2013-10-03T22:30:00Z,26.1290,-94.8980,1.0,3.3,112.0,99.0,'11111222,11111222,11144222' 
ADCP,ioos:station:wmo:42390:1,2013-10-03T23:30:00Z,26.1290,-94.8980,1.0,3.2,107.0,99.0,'11111222,11111222,11144222' 
ADCP,ioos:station:wmo:42390:1,2013-10-04T00:30:00Z,26.1290,-94.8980,1.0,2.8,96.0,99.0,'11111222,11111222,11144222' 
ADCP,ioos:station:wmo:42390:1,2013-10-04T01:30:00Z,26.1290,-94.8980,1.0,2.4,82.0,99.0,'11111222,11111222,11144222' 
ADCP,ioos:station:wmo:42390:1,2013-10-04T02:30:00Z,26.1290,-94.8980,1.0,3.1,84.0,99.0,'11111222,11111222,11144222' 
ADCP,ioos:station:wmo:42390:1,2013-10-04T03:30:00Z,26.1290,-94.8980,1.0,3.7,86.0,99.0,'11111222,11111222,11144222' 
ADCP,ioos:station:wmo:42390:1,2013-10-04T04:30:00Z,26.1290,-94.8980,1.0,4.3,84.0,99.0,'11111222,11111222,11144222' 
ADCP,ioos:station:wmo:42390:1,2013-10-04T05:30:00Z,26.1290,-94.8980,1.0,4.5,95.0,99.0,'11111222,11111222,11144222' 
ADCP,ioos:station:wmo:42390:1,2013-10-04T06:30:00Z,26.1290,-94.8980,1.0,4.8,102.0,99.0,'11111222,11111222,11144222' 
ADCP,ioos:station:wmo:42390:1,2013-10-04T07:30:00Z,26.1290,-94.8980,1.0,5.1,109.0,99.0,'11111222,11111222,11144222' 
ADCP,ioos:station:wmo:42390:1,2013-10-04T08:30:00Z,26.1290,-94.8980,1.0,3.9,114.0,99.0,'11111222,11111222,11144222' 
ADCP,ioos:station:wmo:42390:1,2013-10-04T09:30:00Z,26.1290,-94.8980,1.0,2.8,119.0,99.0,'11111222,11111222,11144222' 
ADCP,ioos:station:wmo:42390:1,2013-10-04T10:30:00Z,26.1290,-94.8980,1.0,2.2,111.0,99.0,'11111222,11111222,11144222' 
ADCP,ioos:station:wmo:42390:1,2013-10-04T11:30:00Z,26.1290,-94.8980,1.0,2.2,106.0,99.0,'11111222,11111222,11144222' 
ADCP,ioos:station:wmo:42390:1,2013-10-04T12:30:00Z,26.1290,-94.8980,1.0,1.9,93.0,99.0,'11111222,11111222,11144222' 
ADCP,ioos:station:wmo:42390:1,2013-10-04T13:30:00Z,26.1290,-94.8980,1.0,1.2,54.0,99.0,'11111222,11111222,11144222' 
ADCP,ioos:station:wmo:42390:1,2013-10-04T14:30:00Z,26.1290,-94.8980,1.0,0.6,17.0,99.0,'11111222,11111222,11144222' 
ADCP,ioos:station:wmo:42390:1,2013-10-04T15:30:00Z,26.1290,-94.8980,1.0,1.6,37.0,99.0,'11111222,11111222,11144222' 
ADCP,ioos:station:wmo:42390:1,2013-10-04T16:30:00Z,26.1290,-94.8980,1.0,1.8,62.0,99.0,'11111222,11111222,11144222' 
ADCP,ioos:station:wmo:42390:1,2013-10-04T17:30:00Z,26.1290,-94.8980,1.0,2.7,95.0,99.0,'11111222,11111222,11144222' 
ADCP,ioos:station:wmo:42390:1,2013-10-04T18:30:00Z,26.1290,-94.8980,1.0,2.6,104.0,99.0,'11111222,11111222,11144222' 
ADCP,ioos:station:wmo:42390:1,2013-10-04T19:30:00Z,26.1290,-94.8980,1.0,2.9,127.0,99.0,'11111222,11111222,11144222' 
ADCP,ioos:station:wmo:42390:1,2013-10-04T20:30:00Z,26.1290,-94.8980,1.0,2.1,118.0,99.0,'11111222,11111222,11144222' 
ADCP,ioos:station:wmo:42390:1,2013-10-04T21:30:00Z,26.1290,-94.8980,1.0,2.2,105.0,99.0,'11111222,11111222,11144222' 
ADCP,ioos:station:wmo:42390:1,2013-10-04T22:30:00Z,26.1290,-94.8980,1.0,2.5,96.0,99.0,'11111222,11111222,11144222' 
ADCP,ioos:station:wmo:42390:1,2013-10-04T23:30:00Z,26.1290,-94.8980,1.0,2.7,78.0,99.0,'11111222,11111222,11144222' 
ADCP,ioos:station:wmo:42390:1,2013-10-05T00:30:00Z,26.1290,-94.8980,1.0,2.4,71.0,99.0,'11111222,11111222,11144222' 
ADCP,ioos:station:wmo:42390:1,2013-10-05T01:30:00Z,26.1290,-94.8980,1.0,3.2,65.0,99.0,'11111222,11111222,11144222' 
ADCP,ioos:station:wmo:42390:1,2013-10-05T02:30:00Z,26.1290,-94.8980,1.0,3.9,71.0,99.0,'11111222,11111222,11144222' 
ADCP,ioos:station:wmo:42390:1,2013-10-05T03:30:00Z,26.1290,-94.8980,1.0,4.2,78.0,99.0,'11111222,11111222,11144222' 
ADCP,ioos:station:wmo:42390:1,2013-10-05T04:30:00Z,26.1290,-94.8980,1.0,3.4,91.0,99.0,'11111222,11111222,11144222' 
ADCP,ioos:station:wmo:42390:1,2013-10-05T05:30:00Z,26.1290,-94.8980,1.0,2.8,101.0,99.0,'11111222,11111222,11144222' 
ADCP,ioos:station:wmo:42390:1,2013-10-05T06:30:00Z,26.1290,-94.8980,1.0,2.4,117.0,99.0,'11111222,11111222,11144222' 
ADCP,ioos:station:wmo:42390:1,2013-10-05T07:30:00Z,26.1290,-94.8980,1.0,2.4,139.0,99.0,'11111222,11111222,11144222' 
ADCP,ioos:station:wmo:42390:1,2013-10-05T08:30:00Z,26.1290,-94.8980,1.0,2.5,160.0,99.0,'11111222,11111222,11144222' 
ADCP,ioos:station:wmo:42390:1,2013-10-05T09:30:00Z,26.1290,-94.8980,1.0,2.3,190.0,99.0,'11111222,11111222,11144222' 
ADCP,ioos:station:wmo:42390:1,2013-10-05T10:30:00Z,26.1290,-94.8980,1.0,1.6,215.0,99.0,'11111222,11111222,11144222' 
ADCP,ioos:station:wmo:42390:1,2013-10-05T11:30:00Z,26.1290,-94.8980,1.0,1.3,247.0,99.0,'11111222,11111222,11144222' 
ADCP,ioos:station:wmo:42390:1,2013-10-05T12:30:00Z,26.1290,-94.8980,1.0,1.2,268.0,99.0,'11111222,11111222,11144222' 
ADCP,ioos:station:wmo:42390:1,2013-10-05T13:30:00Z,26.1290,-94.8980,1.0,1.4,243.0,99.0,'11111222,11111222,11144222' 
ADCP,ioos:station:wmo:42390:1,2013-10-05T14:30:00Z,26.1290,-94.8980,1.0,0.8,290.0,99.0,'11111222,11111222,11144222' 
ADCP,ioos:station:wmo:42390:1,2013-10-05T15:30:00Z,26.1290,-94.8980,1.0,0.0,0.0,99.0,'11111222,11111222,11144222' 
ADCP,ioos:station:wmo:42390:1,2013-10-05T16:30:00Z,26.1290,-94.8980,1.0,5.7,80.0,99.0,'11111222,11111222,11144222' 
ADCP,ioos:station:wmo:42390:1,2013-10-05T17:30:00Z,26.1290,-94.8980,1.0,0.1,349.0,99.0,'11111222,11111222,11144222' 
ADCP,ioos:station:wmo:42390:1,2013-10-05T18:30:00Z,26.1290,-94.8980,1.0,0.3,333.0,99.0,'11111222,11111222,11144222' 
ADCP,ioos:station:wmo:42390:1,2013-10-05T19:30:00Z,26.1290,-94.8980,1.0,0.4,320.0,99.0,'11111222,11111222,11144222' 
ADCP,ioos:station:wmo:42390:1,2013-10-05T20:30:00Z,26.1290,-94.8980,1.0,0.3,337.0,99.0,'11111222,11111222,11144222' 
ADCP,ioos:station:wmo:42390:1,2013-10-05T21:30:00Z,26.1290,-94.8980,1.0,0.4,326.0,99.0,'11111222,11111222,11144222' 
ADCP,ioos:station:wmo:42390:1,2013-10-05T22:30:00Z,26.1290,-94.8980,1.0,0.0,0.0,99.0,'11111222,11111222,11144222' 
ADCP,ioos:station:wmo:42390:1,2013-10-05T23:30:00Z,26.1290,-94.8980,1.0,0.7,13.0,99.0,'11111222,11111222,11144222' 
ADCP,ioos:station:wmo:42390:1,2013-10-06T00:30:00Z,26.1290,-94.8980,1.0,12.5,167.0,99.0,'11111222,11111222,11144222' 
ADCP,ioos:station:wmo:42390:1,2013-10-06T01:30:00Z,26.1290,-94.8980,1.0,1.6,34.0,99.0,'11111222,11111222,11144222' 
ADCP,ioos:station:wmo:42390:1,2013-10-06T02:30:00Z,26.1290,-94.8980,1.0,0.0,0.0,99.0,'11111222,11111222,11144222' 
ADCP,ioos:station:wmo:42390:1,2013-10-06T03:30:00Z,26.1290,-94.8980,1.0,0.0,0.0,99.0,'11111222,11111222,11144222' 
ADCP,ioos:station:wmo:42390:1,2013-10-06T04:30:00Z,26.1290,-94.8980,1.0,0.0,358.0,99.0,'11111222,11111222,11144222' 
ADCP,ioos:station:wmo:42390:1,2013-10-06T05:30:00Z,26.1290,-94.8980,1.0,1.1,290.0,99.0,'11111222,11111222,11144222' 
ADCP,ioos:station:wmo:42390:1,2013-10-06T06:30:00Z,26.1290,-94.8980,1.0,0.7,315.0,99.0,'11111222,11111222,11144222' 
ADCP,ioos:station:wmo:42390:1,2013-10-06T07:30:00Z,26.1290,-94.8980,1.0,1.9,263.0,99.0,'11111222,11111222,11144222' 
ADCP,ioos:station:wmo:42390:1,2013-10-06T08:30:00Z,26.1290,-94.8980,1.0,1.4,295.0,99.0,'11111222,11111222,11144222' 
ADCP,ioos:station:wmo:42390:1,2013-10-06T09:30:00Z,26.1290,-94.8980,1.0,1.9,277.0,99.0,'11111222,11111222,11144222' 
ADCP,ioos:station:wmo:42390:1,2013-10-06T10:30:00Z,26.1290,-94.8980,1.0,3.1,292.0,99.0,'11111222,11111222,11144222' 
ADCP,ioos:station:wmo:42390:1,2013-10-06T11:30:00Z,26.1290,-94.8980,1.0,3.4,290.0,99.0,'11111222,11111222,11144222' 
ADCP,ioos:station:wmo:42390:1,2013-10-06T12:30:00Z,26.1290,-94.8980,1.0,3.6,286.0,99.0,'11111222,11111222,11144222' 
ADCP,ioos:station:wmo:42390:1,2013-10-06T13:30:00Z,26.1290,-94.8980,1.0,4.6,290.0,99.0,'11111222,11111222,11144222' 
ADCP,ioos:station:wmo:42390:1,2013-10-06T14:30:00Z,26.1290,-94.8980,1.0,3.4,210.0,99.0,'11111222,11111222,11144222' 
ADCP,ioos:station:wmo:42390:1,2013-10-06T15:30:00Z,26.1290,-94.8980,1.0,99.0,12.0,99.0,'11144222,11111222,11144222' 
ADCP,ioos:station:wmo:42390:1,2013-10-06T16:30:00Z,26.1290,-94.8980,1.0,99.0,340.0,99.0,'11144222,11111222,11144222' 
ADCP,ioos:station:wmo:42390:1,2013-10-06T17:30:00Z,26.1290,-94.8980,1.0,99.0,45.0,99.0,'11144222,11111222,11144222' 
ADCP,ioos:station:wmo:42390:1,2013-10-06T18:30:00Z,26.1290,-94.8980,1.0,99.0,-9999.0,99.0,'11144222,99999999,11144222' 
ADCP,ioos:station:wmo:42390:1,2013-10-06T19:30:00Z,26.1290,-94.8980,1.0,99.0,11.0,99.0,'11144222,11111222,11144222' 
ADCP,ioos:station:wmo:42390:1,2013-10-06T20:30:00Z,26.1290,-94.8980,1.0,99.0,-9999.0,99.0,'11144222,99999999,11144222' 
ADCP,ioos:station:wmo:42390:1,2013-10-06T21:30:00Z,26.1290,-94.8980,1.0,99.0,-9999.0,99.0,'11144222,99999999,11144222' 
ADCP,ioos:station:wmo:42390:1,2013-10-06T22:30:00Z,26.1290,-94.8980,1.0,99.0,17.0,99.0,'11144222,11111222,11144222' 
ADCP,ioos:station:wmo:42390:1,2013-10-06T23:30:00Z,26.1290,-94.8980,1.0,99.0,169.0,99.0,'11144222,11111222,11144222' 
ADCP,ioos:station:wmo:42390:1,2013-10-07T00:30:00Z,26.1290,-94.8980,1.0,99.0,149.0,99.0,'11144222,11111222,11144222' 
ADCP,ioos:station:wmo:42390:1,2013-10-07T01:30:00Z,26.1290,-94.8980,1.0,99.0,126.0,99.0,'11144222,11111222,11144222' 
ADCP,ioos:station:wmo:42390:1,2013-10-07T02:30:00Z,26.1290,-94.8980,1.0,99.0,1.0,99.0,'11144222,11111222,11144222' 
ADCP,ioos:station:wmo:42390:1,2013-10-07T03:30:00Z,26.1290,-94.8980,1.0,99.0,34.0,99.0,'11144222,11111222,11144222' 
ADCP,ioos:station:wmo:42390:1,2013-10-07T04:30:00Z,26.1290,-94.8980,1.0,99.0,-9999.0,99.0,'11144222,99999999,11144222' 
ADCP,ioos:station:wmo:42390:1,2013-10-07T05:30:00Z,26.1290,-94.8980,1.0,99.0,-9999.0,99.0,'11144222,99999999,11144222' 
ADCP,ioos:station:wmo:42390:1,2013-10-07T06:30:00Z,26.1290,-94.8980,1.0,99.0,222.0,99.0,'11144222,11111222,11144222' 
ADCP,ioos:station:wmo:42390:1,2013-10-07T07:30:00Z,26.1290,-94.8980,1.0,99.0,71.0,99.0,'11144222,11111222,11144222' 
ADCP,ioos:station:wmo:42390:1,2013-10-07T08:30:00Z,26.1290,-94.8980,1.0,99.0,223.0,99.0,'11144222,11111222,11144222' 
ADCP,ioos:station:wmo:42390:1,2013-10-07T09:30:00Z,26.1290,-94.8980,1.0,99.0,1.0,99.0,'11144222,11111222,11144222' 
ADCP,ioos:station:wmo:42390:1,2013-10-07T10:30:00Z,26.1290,-94.8980,1.0,99.0,261.0,99.0,'11144222,11111222,11144222' 
ADCP,ioos:station:wmo:42390:1,2013-10-07T11:30:00Z,26.1290,-94.8980,1.0,99.0,208.0,99.0,'11144222,11111222,11144222' 
ADCP,ioos:station:wmo:42390:1,2013-10-07T12:30:00Z,26.1290,-94.8980,1.0,99.0,176.0,99.0,'11144222,11111222,11144222' 
ADCP,ioos:station:wmo:42390:1,2013-10-07T13:30:00Z,26.1290,-94.8980,1.0,99.0,156.0,99.0,'11144222,11111222,11144222' 
ADCP,ioos:station:wmo:42390:1,2013-10-07T14:30:00Z,26.1290,-94.8980,1.0,99.0,-9999.0,99.0,'11144222,99999999,11144222' 
ADCP,ioos:station:wmo:42390:1,2013-10-07T15:30:00Z,26.1290,-94.8980,1.0,99.0,-9999.0,99.0,'11144222,99999999,11144222' 
ADCP,ioos:station:wmo:42390:1,2013-10-07T16:30:00Z,26.1290,-94.8980,1.0,99.0,-9999.0,99.0,'11144222,99999999,11144222' 
ADCP,ioos:station:wmo:42390:1,2013-10-07T17:30:00Z,26.1290,-94.8980,1.0,99.0,-9999.0,99.0,'11144222,99999999,11144222' 
ADCP,ioos:station:wmo:42390:1,2013-10-07T18:30:00Z,26.1290,-94.8980,1.0,99.0,-9999.0,99.0,'11144222,99999999,11144222' 
ADCP,ioos:station:wmo:42390:1,2013-10-07T19:30:00Z,26.1290,-94.8980,1.0,99.0,-9999.0,99.0,'11144222,99999999,11144222' 
ADCP,ioos:station:wmo:42390:1,2013-10-07T20:30:00Z,26.1290,-94.8980,1.0,99.0,-9999.0,99.0,'11144222,99999999,11144222' 
ADCP,ioos:station:wmo:42390:1,2013-10-07T21:30:00Z,26.1290,-94.8980,1.0,99.0,-9999.0,99.0,'11144222,99999999,11144222' 
ADCP,ioos:station:wmo:42390:1,2013-10-07T22:30:00Z,26.1290,-94.8980,1.0,99.0,-9999.0,99.0,'11144222,99999999,11144222' 
ADCP,ioos:station:wmo:42390:1,2013-10-07T23:30:00Z,26.1290,-94.8980,1.0,99.0,-9999.0,99.0,'11144222,99999999,11144222' 
ADCP,ioos:station:wmo:42390:1,2013-10-08T00:30:00Z,26.1290,-94.8980,1.0,99.0,-9999.0,99.0,'11144222,99999999,11144222' 
ADCP,ioos:station:wmo:42390:1,2013-10-08T01:30:00Z,26.1290,-94.8980,1.0,99.0,-9999.0,99.0,'11144222,99999999,11144222' 
ADCP,ioos:station:wmo:42390:1,2013-10-08T02:30:00Z,26.1290,-94.8980,1.0,99.0,-9999.0,99.0,'11144222,99999999,11144222' 
ADCP,ioos:station:wmo:42390:1,2013-10-08T03:30:00Z,26.1290,-94.8980,1.0,99.0,-9999.0,99.0,'11144222,99999999,11144222' 
ADCP,ioos:station:wmo:42390:1,2013-10-08T04:30:00Z,26.1290,-94.8980,1.0,99.0,-9999.0,99.0,'11144222,99999999,11144222' 
ADCP,ioos:station:wmo:42390:1,2013-10-08T05:30:00Z,26.1290,-94.8980,1.0,99.0,-9999.0,99.0,'11144222,99999999,11144222' 
ADCP,ioos:station:wmo:42390:1,2013-10-08T06:30:00Z,26.1290,-94.8980,1.0,99.0,-9999.0,99.0,'11144222,99999999,11144222' 
ADCP,ioos:station:wmo:42390:1,2013-10-08T07:30:00Z,26.1290,-94.8980,1.0,99.0,-9999.0,99.0,'11144222,99999999,11144222' 
ADCP,ioos:station:wmo:42390:1,2013-10-08T08:30:00Z,26.1290,-94.8980,1.0,99.0,-9999.0,99.0,'11144222,99999999,11144222' 
ADCP,ioos:station:wmo:42390:1,2013-10-08T09:30:00Z,26.1290,-94.8980,1.0,99.0,-9999.0,99.0,'11144222,99999999,11144222' 
ADCP,ioos:station:wmo:42390:1,2013-10-08T10:30:00Z,26.1290,-94.8980,1.0,99.0,-9999.0,99.0,'11144222,99999999,11144222' 
ADCP,ioos:station:wmo:42390:1,2013-10-08T11:30:00Z,26.1290,-94.8980,1.0,99.0,-9999.0,99.0,'11144222,99999999,11144222' 
ADCP,ioos:station:wmo:42390:1,2013-10-08T12:30:00Z,26.1290,-94.8980,1.0,99.0,-9999.0,99.0,'11144222,99999999,11144222' 
ADCP,ioos:station:wmo:42390:1,2013-10-08T13:30:00Z,26.1290,-94.8980,1.0,99.0,-9999.0,99.0,'11144222,99999999,11144222' 
ADCP,ioos:station:wmo:42390:1,2013-10-08T14:30:00Z,26.1290,-94.8980,1.0,99.0,-9999.0,99.0,'11144222,99999999,11144222' 
ADCP,ioos:station:wmo:42390:1,2013-10-08T15:30:00Z,26.1290,-94.8980,1.0,99.0,-9999.0,99.0,'11144222,99999999,11144222' 
ADCP,ioos:station:wmo:42390:1,2013-10-08T16:30:00Z,26.1290,-94.8980,1.0,99.0,-9999.0,99.0,'11144222,99999999,11144222' 
ADCP,ioos:station:wmo:42390:1,2013-10-08T17:30:00Z,26.1290,-94.8980,1.0,99.0,-9999.0,99.0,'11144222,99999999,11144222' 
ADCP,ioos:station:wmo:42390:1,2013-10-08T18:30:00Z,26.1290,-94.8980,1.0,99.0,-9999.0,99.0,'11144222,99999999,11144222' 
ADCP,ioos:station:wmo:42390:1,2013-10-08T19:30:00Z,26.1290,-94.8980,1.0,99.0,-9999.0,99.0,'11144222,99999999,11144222' 
ADCP,ioos:station:wmo:42390:1,2013-10-08T20:30:00Z,26.1290,-94.8980,1.0,99.0,-9999.0,99.0,'11144222,99999999,11144222' 
ADCP,ioos:station:wmo:42390:1,2013-10-08T21:30:00Z,26.1290,-94.8980,1.0,99.0,-9999.0,99.0,'11144222,99999999,11144222' 
ADCP,ioos:station:wmo:42390:1,2013-10-08T22:30:00Z,26.1290,-94.8980,1.0,99.0,-9999.0,99.0,'11144222,99999999,11144222' 
ADCP,ioos:station:wmo:42390:1,2013-10-08T23:30:00Z,26.1290,-94.8980,1.0,99.0,-9999.0,99.0,'11144222,99999999,11144222' 
ADCP,ioos:station:wmo:42390:1,2013-10-09T00:30:00Z,26.1290,-94.8980,1.0,99.0,-9999.0,99.0,'11144222,99999999,11144222' 
ADCP,ioos:station:wmo:42390:1,2013-10-09T01:30:00Z,26.1290,-94.8980,1.0,99.0,-9999.0,99.0,'11144222,99999999,11144222' 
ADCP,ioos:station:wmo:42390:1,2013-10-09T02:30:00Z,26.1290,-94.8980,1.0,99.0,-9999.0,99.0,'11144222,99999999,11144222' 
ADCP,ioos:station:wmo:42390:1,2013-10-09T03:30:00Z,26.1290,-94.8980,1.0,99.0,-9999.0,99.0,'11144222,99999999,11144222' 
ADCP,ioos:station:wmo:42390:1,2013-10-09T04:30:00Z,26.1290,-94.8980,1.0,99.0,-9999.0,99.0,'11144222,99999999,11144222' 
ADCP,ioos:station:wmo:42390:1,2013-10-09T05:30:00Z,26.1290,-94.8980,1.0,99.0,-9999.0,99.0,'11144222,99999999,11144222' 
ADCP,ioos:station:wmo:42390:1,2013-10-09T06:30:00Z,26.1290,-94.8980,1.0,99.0,-9999.0,99.0,'11144222,99999999,11144222' 
ADCP,ioos:station:wmo:42390:1,2013-10-09T07:30:00Z,26.1290,-94.8980,1.0,99.0,-9999.0,99.0,'11144222,99999999,11144222' 
ADCP,ioos:station:wmo:42390:1,2013-10-09T08:30:00Z,26.1290,-94.8980,1.0,99.0,-9999.0,99.0,'11144222,99999999,11144222' 
ADCP,ioos:station:wmo:42390:1,2013-10-09T09:30:00Z,26.1290,-94.8980,1.0,99.0,-9999.0,99.0,'11144222,99999999,11144222' 
ADCP,ioos:station:wmo:42390:1,2013-10-09T10:30:00Z,26.1290,-94.8980,1.0,99.0,-9999.0,99.0,'11144222,99999999,11144222' 
ADCP,ioos:station:wmo:42390:1,2013-10-09T11:30:00Z,26.1290,-94.8980,1.0,99.0,-9999.0,99.0,'11144222,99999999,11144222' 